Tracking 19832 objects as of 26-Aug-2019
HD Live streaming from Space Station
objects crossing your sky now

DELTA 1 DEB

Track DELTA 1 DEB now!
10-day predictions


NORAD ID: 12168
Int'l Code: 1978-026H
Perigee: 798.9 km
Apogee: 1,056.2 km
Inclination: 98.9 °
Period: 103.4 minutes
Semi major axis: 7298 km
RCS: 0.1563 m2 (medium)
Launch date: March 5, 1978
Source: United States (US)
Launch site: AIR FORCE WESTERN TEST RANGE (AFWTR)

Note: This is SATELLITE DEBRIS
aabbcc
Your satellite tracking list
Your tracking list is empty




NASA's NSSDC Master Catalog

Two Line Element Set (TLE):
1 12168U 78026H   19237.70508873 +.00000002 +00000-0 +30053-4 0  9998
2 12168 098.9337 136.2840 0176287 163.1702 197.5410 13.92341405954450
Source of the keplerian elements: AFSPC